Hourly Data Report for October 05, 2017

All times are specified in Local Standard Time (LST). Add 1 hour to adjust for Daylight Saving Time where and when it is observed.

NORTH BAY A
ONTARIO

46°21'50.000" N
79°25'27.000" W
370.30 m
6085680
71731
YYB

Download Data

Hourly Data (October 2017)
Hourly Data Report for October 5, 2017
Temp Definition
°C
Dew Point Temp Definition
°C
Rel Hum Definition
%
Wind Dir Definition
10's deg

Wind Spd Definition
km/h
Visibility Definition
km
Stn Press Definition
kPa
Hmdx Definition


Wind Chill Definition


Weather Definition


TIME
00:00 Legend Double Dagger 8.0 5.5 84 30 8 16.1 97.48     LegendNANA
01:00 Legend Double Dagger 7.1 5.1 87 30 5 16.1 97.47     LegendNANA
02:00 Legend Double Dagger 6.6 5.2 91 30 4 16.1 97.45     LegendNANA
03:00 Legend Double Dagger 6.1 4.9 92 28 5 16.1 97.44     LegendNANA
04:00 Legend Double Dagger 9.1 6.9 86 26 15 16.1 97.47     LegendNANA
05:00 Legend Double Dagger 8.6 5.8 83 25 8 16.1 97.46     LegendNANA
06:00 Legend Double Dagger 8.2 5.3 82 26 11 16.1 97.42     LegendNANA
07:00 Legend Double Dagger 8.0 5.3 83 28 13 16.1 97.43     LegendNANA
08:00 Legend Double Dagger 9.9 6.3 78 28 17 16.1 97.40     LegendNANA
09:00 Legend Double Dagger 11.8 6.2 68 27 17 16.1 97.35     LegendNANA
10:00 Legend Double Dagger 12.3 5.6 63 25 22 16.1 97.31     LegendNANA
11:00 Legend Double Dagger 13.1 5.9 61 24 22 16.1 97.28     LegendNANA
12:00 Legend Double Dagger 13.3 5.8 60 27 24 16.1 97.24     LegendNANA
13:00 Legend Double Dagger 13.3 6.7 64 26 17 16.1 97.18     LegendNANA
14:00 Legend Double Dagger 14.0 6.8 62 26 17 16.1 97.13     LegendNANA
15:00 Legend Double Dagger 14.2 6.8 61 26 18 16.1 97.11     LegendNANA
16:00 Legend Double Dagger 14.2 7.1 62 29 11 16.1 97.09     LegendNANA
17:00 Legend Double Dagger 13.1 7.3 68 26 15 16.1 97.11     LegendNANA
18:00 Legend Double Dagger 12.5 7.4 71 25 15 16.1 97.13     LegendNANA
19:00 Legend Double Dagger 11.8 6.9 72 25 13 16.1 97.20     LegendNANA
20:00 Legend Double Dagger 11.1 7.2 77 26 13 16.1 97.23     LegendNANA
21:00 Legend Double Dagger 10.8 7.6 80 26 13 16.1 97.22     LegendNANA
22:00 Legend Double Dagger 10.1 7.5 84 27 17 16.1 97.24     LegendNANA
23:00 Legend Double Dagger 9.4 7.0 85 29 11 16.1 97.25     LegendNANA

Notes on Data Quality.

Legend

  • E = Estimated
  • M = Missing
  • NA = Not Available
  • ‡ = Partner data that is not subject to review by the National Climate Archives
Date modified: